Theta_e
301 300 300 299 298 298 298 299 299 298 297 295 295 299 301 298 296 296 297 298 299 299 298 299 300 301 301 301 302 302 299 302 308 307 307 307 305 304 306 307 308 308 309 309 309 312 313 313 312 311 310 311 312 312 312 313 315 318 320 325 327 327 326 327 328 327 326 328 326 324 324 322 319 320 319 320 320 320 322 323 326 330 330 331 333 333 332 333
300 299 298 296 296 296 296 297 297 297 296 296 296 297 297 297 297 298 298 299 299 298 298 299 299 300 301 300 302 303 301 304 308 307 306 306 303 304 306 307 308 309 309 309 310 311 312 313 312 311 312 311 311 311 311 312 314 317 321 325 326 325 325 326 327 326 326 327 326 322 321 319 319 320 320 322 324 325 326 327 328 331 333 334 335 335 335 336
299 297 296 296 296 296 297 297 297 297 297 298 298 297 297 298 298 298 299 299 299 298 298 299 298 300 301 299 302 304 304 306 307 306 306 305 302 302 305 306 307 309 309 309 310 311 312 314 313 313 313 311 311 311 311 312 314 316 320 322 323 323 324 325 326 326 326 326 325 322 319 317 317 319 321 324 325 325 326 329 330 329 332 334 335 337 336 336
297 296 297 297 297 297 298 298 298 298 298 299 299 299 299 299 299 299 299 298 299 298 298 299 298 300 301 300 302 304 306 308 305 304 305 303 300 301 303 304 307 309 310 310 310 311 312 313 313 312 312 311 310 311 311 311 313 315 317 319 321 321 322 324 326 326 326 326 325 322 318 317 317 317 318 321 323 325 327 330 332 332 333 335 335 336 335 334
297 297 297 297 298 298 298 299 299 299 300 300 300 300 300 300 300 300 300 299 299 299 299 299 298 300 301 301 302 304 307 308 304 304 303 301 300 300 301 303 306 308 309 310 310 311 311 313 313 312 311 311 310 310 311 311 313 314 316 318 319 320 321 322 323 325 325 325 324 321 319 317 317 317 315 316 318 322 329 332 332 332 331 332 333 334 334 334
297 297 297 298 298 298 299 300 300 300 300 300 300 301 300 300 300 300 300 300 300 300 300 299 299 301 301 302 303 305 307 306 303 303 303 303 302 300 300 301 304 307 309 309 310 311 312 312 312 312 311 310 310 310 311 312 312 313 315 316 317 318 319 320 321 323 325 324 323 320 318 317 317 315 315 316 315 317 328 332 329 327 326 327 326 325 325 326
297 298 298 298 298 299 300 300 301 301 300 301 301 301 301 301 300 300 301 300 300 300 300 300 300 301 302 303 305 306 306 304 303 302 303 305 303 301 300 301 303 307 309 309 311 312 312 313 312 312 311 309 309 310 311 312 312 312 313 314 316 316 320 321 322 322 323 322 320 317 316 316 315 314 315 317 316 317 324 327 323 321 321 322 320 318 317 318
298 298 298 298 299 300 300 300 301 301 301 301 301 301 301 301 301 301 301 301 301 300 301 300 301 302 304 305 305 307 307 303 303 304 304 305 304 302 301 303 306 307 308 309 310 311 312 313 312 311 311 309 308 308 311 312 313 312 311 314 316 318 321 322 323 322 319 318 317 315 315 314 314 314 314 316 318 318 319 319 317 317 317 318 317 316 316 315
298 298 298 298 300 300 300 300 300 300 301 301 301 301 301 301 301 301 301 301 301 301 302 301 302 303 304 305 306 307 306 303 303 304 304 304 304 303 302 305 307 307 307 307 310 311 312 312 311 311 311 311 311 309 310 311 312 312 312 315 318 320 322 322 323 321 317 316 315 315 314 314 314 314 314 315 317 316 315 314 313 313 313 313 314 315 314 314
298 298 298 299 300 300 300 300 300 300 300 300 301 301 301 301 301 301 300 301 301 301 302 302 303 303 304 306 306 305 304 303 304 304 304 304 304 304 304 305 306 306 307 306 308 310 311 312 312 312 312 313 313 312 312 312 313 314 314 317 319 320 321 322 322 319 316 315 315 314 312 313 313 314 314 314 315 314 313 312 311 311 310 310 310 311 313 313
298 298 298 299 300 300 300 300 300 300 300 300 300 300 300 300 301 301 300 300 301 301 302 303 304 304 305 306 305 304 303 303 304 304 304 304 304 305 305 305 305 307 306 305 307 310 310 311 312 313 313 313 313 313 314 314 315 315 316 318 319 319 320 321 320 317 315 314 314 313 312 312 312 313 314 313 313 312 312 312 311 310 309 309 308 308 309 310
298 298 298 299 300 300 300 300 300 300 300 300 300 300 300 300 301 301 301 300 300 301 301 302 303 304 306 306 304 304 303 303 304 304 304 304 305 306 306 305 305 307 306 304 306 309 310 310 311 313 313 312 312 313 314 315 316 315 315 318 318 318 318 319 319 317 315 315 315 315 314 312 312 313 313 312 311 310 310 310 310 310 309 308 308 308 307 308
298 297 298 299 300 300 300 300 300 300 300 300 300 300 300 300 300 300 301 300 300 301 302 302 303 304 306 305 303 303 303 303 304 304 304 305 305 306 306 306 306 307 306 304 306 308 308 309 310 312 314 314 312 313 314 315 316 316 316 318 318 318 317 317 318 317 316 316 316 317 315 312 312 312 312 310 309 309 309 309 309 309 308 308 307 307 307 307
297 297 297 298 299 300 300 300 300 300 299 299 299 300 299 299 299 300 300 300 300 300 302 302 303 304 306 304 302 303 303 304 304 304 305 305 305 306 306 306 307 307 305 305 307 308 308 310 311 313 315 315 314 314 314 314 316 316 316 317 317 319 318 315 315 317 318 317 315 315 314 312 311 310 310 308 308 308 308 308 308 308 307 307 307 306 306 306
297 297 297 297 298 299 300 300 300 300 299 300 300 300 300 299 299 299 300 300 301 301 301 302 303 305 305 303 302 303 303 304 304 304 305 305 305 306 306 306 306 305 305 307 308 308 309 310 311 313 315 314 314 314 313 314 316 315 315 316 317 318 317 314 312 316 318 315 313 314 313 312 310 309 309 307 307 307 307 307 307 307 307 306 306 306 305 305
297 297 296 297 297 298 299 299 300 300 300 300 300 300 301 300 299 299 300 300 301 302 301 302 303 304 304 303 302 303 303 304 304 304 304 305 306 306 306 306 306 305 306 307 308 309 309 310 311 313 314 314 314 313 312 314 315 314 315 315 317 318 316 313 311 314 316 313 313 313 312 311 308 308 308 307 307 306 307 306 306 306 306 305 305 305 304 304
297 297 296 297 297 298 298 298 299 299 300 300 300 300 301 302 301 301 300 300 301 304 303 302 303 304 304 302 302 303 304 304 304 304 305 305 306 307 307 307 306 306 307 308 308 309 308 310 311 312 314 314 314 313 312 312 313 313 313 314 317 317 314 312 311 311 312 311 311 310 309 307 306 307 307 307 307 306 307 306 305 305 305 304 304 304 304 303
297 297 297 297 297 298 299 299 299 299 300 300 300 300 301 303 303 302 301 300 300 303 304 302 302 303 303 302 302 303 303 304 304 304 305 305 306 307 307 307 306 307 308 308 308 309 308 309 311 312 314 314 313 313 311 311 312 312 312 314 316 315 312 311 310 309 309 308 308 307 306 306 305 306 307 307 307 306 306 306 305 305 304 304 303 303 303 303
297 297 297 297 297 298 299 300 300 300 301 300 300 301 300 303 305 303 301 300 300 302 303 302 301 301 301 302 302 303 303 304 304 304 305 305 306 307 307 308 308 308 308 308 308 309 309 310 311 312 313 313 313 313 312 312 311 312 312 314 314 312 310 309 308 308 307 306 306 306 306 306 306 305 306 306 306 306 306 305 305 304 304 303 303 303 302 302
298 298 298 298 297 298 298 299 299 300 300 299 299 300 300 303 306 303 302 301 301 302 302 301 301 301 301 302 302 303 303 303 303 304 305 306 307 306 307 308 309 309 308 308 309 310 310 311 311 311 311 311 311 312 312 312 311 312 312 312 311 309 308 307 306 307 306 306 305 306 305 305 305 305 305 306 305 305 305 305 304 304 303 303 303 302 302 301
298 298 298 298 298 298 298 298 299 299 299 299 299 300 300 302 304 302 303 303 300 300 301 300 301 301 301 302 302 303 303 303 303 303 304 306 307 307 307 307 308 308 308 308 309 309 309 310 310 310 309 310 310 311 312 311 311 312 311 310 309 309 308 307 307 307 306 306 305 305 305 305 305 305 305 305 305 304 304 304 304 303 303 303 302 302 301 301
298 298 298 298 298 298 298 298 299 298 298 299 299 299 299 300 301 301 304 305 300 299 300 300 300 300 301 302 302 303 303 303 303 303 304 305 307 308 307 308 308 308 308 308 308 308 309 309 309 309 309 310 311 312 312 312 312 312 311 311 310 309 308 307 306 306 306 306 305 305 305 305 305 305 305 305 304 304 304 304 304 303 303 302 302 301 301 300
298 298 298 298 298 298 299 298 298 298 298 299 298 299 299 300 301 300 302 305 301 299 300 300 300 300 301 302 302 303 303 302 303 303 304 305 306 307 307 308 308 307 308 308 308 308 308 308 308 308 309 310 311 311 312 312 313 314 314 311 310 309 308 307 306 305 305 305 305 305 305 305 305 305 304 305 305 304 304 304 303 303 302 302 301 301 300 300
298 298 298 298 298 298 299 299 298 298 299 299 298 299 299 300 301 299 302 305 301 298 299 300 300 300 301 302 301 303 304 302 303 303 303 304 306 307 308 307 308 308 308 308 308 308 308 307 307 308 309 310 311 310 311 312 313 314 314 312 310 309 308 308 306 306 305 305 305 305 305 305 305 305 305 304 305 304 304 304 303 303 302 302 301 300 300 299
297 298 297 298 298 298 300 300 298 298 300 299 298 299 299 300 301 300 304 306 300 298 299 299 300 300 301 302 301 302 303 302 303 303 303 304 305 307 308 307 307 308 308 308 308 307 307 307 307 309 309 310 311 310 310 312 313 312 313 313 311 309 308 307 306 307 306 307 307 306 307 306 305 305 305 304 304 304 304 304 303 303 302 301 301 300 299 298
297 297 297 298 298 298 299 299 298 298 300 300 298 299 300 301 301 301 305 305 299 297 299 300 300 300 301 302 301 302 303 303 303 303 303 304 305 306 307 307 307 308 308 308 307 306 306 306 307 308 309 309 309 309 310 311 313 313 313 313 311 309 308 308 308 309 309 310 308 307 307 306 305 305 305 304 304 304 304 304 303 302 301 301 300 299 299 298
297 297 298 298 298 298 298 298 298 298 299 299 299 298 300 301 300 302 306 303 298 298 299 300 300 300 301 302 301 302 303 303 303 303 303 304 305 305 306 306 306 307 308 308 307 306 305 305 306 307 308 308 308 309 310 311 313 313 312 312 311 309 309 311 311 311 310 309 307 306 306 306 305 304 305 304 304 304 304 304 303 302 301 300 299 299 298 298
297 297 298 298 298 298 298 298 298 298 298 298 299 299 300 301 300 303 305 300 297 298 299 299 300 300 301 301 301 302 302 303 304 303 302 303 304 304 305 305 305 306 306 307 306 305 305 305 305 305 306 307 308 308 310 311 312 313 313 312 310 310 311 313 314 312 309 308 308 307 306 306 305 304 304 305 305 305 304 304 304 303 302 301 300 299 298 298
297 297 297 298 298 298 298 298 298 297 297 298 299 299 300 301 301 304 304 298 297 298 299 300 300 300 301 301 301 302 301 302 303 303 302 302 303 303 304 304 304 305 305 305 305 305 306 305 304 304 305 306 307 308 310 312 311 311 314 313 311 312 312 311 311 310 309 309 309 308 307 306 306 304 304 305 304 304 304 304 304 303 302 301 300 299 299 298
297 297 297 298 298 298 298 298 298 298 297 298 299 299 300 302 303 303 301 299 298 299 299 300 301 301 302 302 302 302 302 302 302 302 302 302 302 302 303 303 303 304 305 304 304 305 305 304 304 303 303 305 306 307 310 312 310 310 313 313 312 312 311 311 311 310 310 308 307 306 306 306 306 304 303 304 304 303 304 304 304 304 303 302 301 299 298 298
297 297 297 297 298 298 298 298 298 298 298 299 299 299 301 303 303 301 299 299 300 300 299 300 300 301 302 302 302 302 302 301 301 302 301 301 301 301 302 302 302 304 305 303 303 303 303 303 303 303 302 303 306 308 308 310 309 310 311 311 311 312 310 311 311 311 311 309 306 305 305 306 306 304 303 303 303 303 303 303 304 304 303 302 301 300 298 297
297 297 297 297 298 298 298 298 298 298 299 300 300 302 304 302 300 299 299 299 298 299 299 300 300 301 302 302 302 302 302 302 301 301 301 301 301 301 301 301 301 304 305 303 303 303 302 302 302 303 302 303 306 307 308 309 309 309 310 309 311 311 309 310 311 311 310 309 306 305 305 305 304 303 302 302 302 302 303 303 303 303 303 303 301 300 298 297
297 297 297 298 298 298 298 298 298 299 300 300 301 303 303 301 298 298 299 299 298 298 299 300 300 301 302 302 302 301 302 302 301 301 301 301 301 300 301 301 301 303 304 303 302 302 303 303 302 303 302 302 304 305 306 308 308 309 310 309 310 309 308 310 310 309 309 308 306 306 306 304 302 302 302 302 302 302 302 303 303 303 303 303 301 300 298 297
297 297 298 298 298 299 299 298 299 300 301 302 303 304 301 300 298 298 299 300 299 299 300 300 300 301 302 302 301 302 302 302 301 301 300 300 300 300 300 300 301 301 302 303 302 301 302 303 303 303 302 302 304 304 305 306 307 308 309 309 310 310 309 310 309 309 309 308 307 307 306 304 302 302 303 302 302 302 302 302 302 303 303 303 302 300 298 297
297 297 298 298 298 299 298 299 299 301 303 302 302 302 300 299 298 299 299 300 300 299 299 300 300 301 302 301 301 301 301 302 302 301 300 299 299 300 300 300 300 300 302 303 302 301 301 301 303 303 302 302 303 303 304 305 307 309 309 310 310 309 309 310 310 310 309 309 308 307 305 304 302 301 302 302 302 302 302 301 301 301 302 302 302 300 298 297
298 298 298 298 298 298 298 299 300 301 302 302 301 300 298 299 299 299 299 300 300 299 299 300 300 301 301 300 301 300 300 301 301 301 301 300 299 300 299 300 300 300 301 302 302 302 301 301 302 304 302 301 302 303 304 305 307 309 308 308 307 306 309 310 310 309 308 309 307 304 304 303 302 302 302 302 302 301 301 300 299 299 300 301 302 300 298 297
298 299 298 298 298 299 299 299 300 301 300 300 301 299 297 298 299 299 299 299 299 299 300 300 300 300 301 300 300 300 300 301 301 301 301 300 300 299 299 300 300 300 301 301 302 302 302 301 301 303 303 302 301 302 303 303 305 307 306 305 305 306 308 309 309 308 308 309 306 304 305 304 304 304 303 302 302 301 301 300 298 298 298 299 301 300 299 297
298 300 299 298 299 299 299 299 300 301 301 300 300 298 297 297 298 298 298 297 298 299 300 300 300 300 300 300 300 300 300 300 300 301 300 300 300 300 299 299 300 300 300 301 301 301 301 301 300 303 304 302 300 301 303 302 302 306 305 304 307 308 308 309 309 307 307 308 306 305 306 305 305 304 302 302 302 301 301 300 299 298 298 298 299 300 299 296
298 301 300 298 298 299 299 300 300 301 302 302 301 298 296 297 298 297 297 297 298 299 300 300 300 300 299 299 299 299 300 300 299 300 300 300 299 300 299 299 300 300 299 300 300 299 301 302 301 303 303 302 301 301 302 302 302 304 303 303 305 305 305 306 307 306 307 307 307 306 306 306 306 304 302 302 303 302 302 301 300 299 297 297 298 299 299 296
299 302 301 297 299 299 299 299 299 301 300 299 299 296 294 297 299 298 297 297 298 299 300 300 300 299 299 299 299 299 299 299 298 298 299 299 299 299 298 298 300 299 298 300 300 299 302 303 302 303 303 302 301 300 300 300 301 302 302 302 303 303 304 304 303 304 304 306 307 306 305 305 304 302 303 303 302 302 301 301 301 299 298 297 297 298 299 297
301 304 301 297 299 299 299 301 301 300 298 297 297 295 294 297 299 299 298 298 298 298 299 299 299 299 299 298 299 298 298 299 298 297 298 298 299 298 298 298 299 298 298 299 300 299 301 302 302 303 303 302 300 299 299 299 300 302 301 301 302 302 304 304 301 301 302 304 305 303 304 305 303 302 303 302 301 301 301 300 300 300 298 297 296 297 298 297
301 303 300 298 300 300 300 302 300 299 299 297 296 296 297 298 298 299 298 298 299 298 298 298 299 299 298 298 298 298 298 298 298 298 297 298 298 297 297 298 298 298 297 298 299 299 299 300 302 302 302 302 301 299 299 297 299 302 301 301 301 301 303 304 303 302 302 303 303 302 302 304 302 301 302 301 301 301 300 300 300 300 299 297 296 296 296 297
300 301 299 298 299 300 302 302 299 297 296 294 294 296 297 298 299 298 298 298 299 299 298 298 298 298 298 298 298 298 298 298 298 298 297 298 298 297 297 298 297 297 297 297 298 299 299 300 302 302 302 301 300 299 298 297 299 302 301 300 301 301 301 302 301 302 303 303 304 303 303 303 302 301 301 301 300 300 300 300 300 300 300 298 296 295 295 296
298 299 298 299 300 301 304 304 300 297 296 296 296 296 297 298 299 299 298 298 298 299 299 298 298 298 297 297 297 298 298 298 298 298 298 298 298 297 298 298 297 296 297 297 298 299 299 299 301 303 304 303 303 303 302 300 300 301 300 299 301 301 300 301 301 301 302 303 302 301 303 304 302 301 300 300 300 300 300 300 300 300 299 298 297 295 295 295
301 301 299 298 299 301 303 302 300 298 297 298 298 298 298 298 298 299 298 298 298 298 298 298 298 298 297 296 296 297 298 298 298 298 298 297 297 297 297 298 297 296 296 297 297 298 299 298 299 303 305 304 305 305 304 302 301 300 299 299 300 300 300 301 302 301 302 301 300 300 303 303 302 301 301 300 300 300 300 300 299 299 299 299 297 296 295 294
303 303 301 300 298 299 300 299 299 299 299 300 299 298 298 299 298 298 298 298 298 298 297 297 296 298 298 297 297 297 297 297 297 298 297 297 297 297 297 298 298 296 296 296 296 297 298 296 296 299 301 302 302 301 300 300 300 301 300 299 299 300 299 300 301 302 302 301 301 302 302 302 302 301 301 301 301 300 300 300 299 299 299 299 297 296 295 294
302 303 302 301 301 300 299 299 299 299 299 300 300 298 299 299 298 298 298 298 298 298 297 297 296 297 298 297 298 298 298 297 297 297 297 297 297 296 297 298 297 296 295 295 295 298 300 298 295 295 297 298 298 298 299 299 299 299 299 299 299 299 299 300 301 302 300 301 304 304 301 302 302 301 301 301 301 300 300 300 300 299 299 298 298 296 295 294
302 299 297 299 303 302 301 300 298 298 299 299 298 298 299 300 299 299 299 298 297 297 298 298 297 297 297 296 297 298 297 297 297 297 297 297 296 297 297 297 296 295 294 295 295 296 299 300 297 296 296 296 296 296 297 298 298 298 298 299 299 299 299 300 300 300 299 301 304 303 300 301 301 300 300 300 300 301 300 300 300 299 298 298 297 296 295 294
299 298 296 298 300 299 299 299 298 298 298 298 298 298 300 300 300 299 299 298 297 296 298 299 298 296 295 295 296 297 297 298 298 297 297 297 297 297 297 297 296 295 294 295 294 294 298 300 297 296 298 298 297 297 297 297 298 298 298 298 299 299 299 299 300 299 299 300 301 300 299 299 299 298 299 299 299 300 300 300 299 298 298 298 297 296 295 294
298 299 298 297 297 297 297 298 298 298 298 298 299 299 298 300 300 298 297 298 298 297 297 298 298 296 295 295 296 296 296 297 297 296 296 297 297 296 296 296 296 294 294 295 295 295 298 300 298 297 299 301 299 297 297 298 298 298 298 297 298 298 299 299 299 299 300 300 299 298 299 299 298 298 299 299 299 299 300 299 299 298 298 297 297 297 296 294
298 299 298 298 298 297 297 298 298 300 300 299 301 299 298 299 300 298 298 298 298 298 297 297 297 296 295 295 295 295 295 296 296 295 295 296 296 295 295 295 294 294 294 294 295 296 297 298 299 299 300 301 298 297 298 298 298 298 298 297 297 297 297 298 298 298 299 300 299 299 300 299 298 298 299 300 300 300 299 299 298 298 298 297 297 297 296 295
297 298 298 300 300 298 298 299 298 300 302 301 300 298 298 299 299 298 298 298 297 298 297 296 296 296 296 296 295 295 295 293 293 293 293 293 294 293 294 294 293 294 293 294 295 296 296 297 298 299 300 301 299 298 298 298 301 303 302 299 298 296 296 297 298 299 299 299 299 300 300 299 298 300 301 300 300 299 299 299 298 298 297 297 297 296 296 295
Wind_Speed
17 16 16 16 16 15 16 16 17 17 18 18 17 16 15 14 11 10 10 11 13 14 15 14 13 14 15 15 14 15 13 10 8 7 9 11 16 13 11 11 11 11 11 11 11 13 11 7 8 7 8 8 10 11 11 13 14 12 7 5 7 8 7 6 6 5 2 2 4 7 12 11 7 8 5 6 9 13 14 16 18 19 20 19 14 12 12 13
16 16 16 16 17 17 18 18 19 19 20 20 19 18 17 15 13 12 12 13 14 15 15 14 13 13 13 14 13 14 11 9 7 7 9 14 17 14 13 12 10 9 9 9 12 13 9 8 7 5 8 9 10 12 12 13 16 11 4 6 8 7 9 9 8 7 3 3 8 14 22 20 15 16 10 7 16 20 17 17 19 21 21 19 16 16 15 15
16 15 15 16 17 19 20 20 20 20 20 20 19 19 17 16 14 13 14 15 15 16 15 14 14 12 12 14 12 12 10 7 6 8 10 16 17 14 14 13 11 8 8 8 11 13 10 11 9 5 7 10 11 14 14 14 15 12 8 6 7 7 9 14 16 10 6 2 9 13 24 25 22 24 16 10 19 22 16 16 19 20 20 18 17 17 17 17
15 14 15 17 18 19 20 19 19 19 19 19 18 18 16 16 15 15 16 16 17 17 16 15 14 11 11 15 10 9 10 5 6 10 13 17 16 15 14 13 11 8 7 6 9 12 11 11 9 9 9 9 13 15 14 15 13 11 11 6 5 9 8 16 22 17 14 8 10 13 21 20 23 30 25 17 15 13 14 17 17 18 19 19 19 18 19 19
14 14 15 18 19 19 19 19 19 18 19 18 18 18 17 17 17 17 17 18 18 16 16 15 13 11 11 15 9 7 11 4 7 14 16 18 18 16 14 13 11 9 7 7 10 12 11 11 10 11 9 8 11 12 12 18 16 8 11 10 9 11 7 14 20 23 22 12 16 12 16 14 21 28 27 25 14 9 14 18 19 21 22 21 22 22 21 22
14 15 16 18 19 19 19 19 19 19 19 18 18 18 18 19 18 18 18 19 18 16 15 13 12 11 12 14 8 6 7 3 12 20 18 21 21 18 15 13 10 9 9 10 12 11 10 11 10 11 9 8 9 9 12 19 18 6 9 13 16 15 7 13 18 22 22 21 18 11 18 21 22 19 24 29 17 14 16 20 24 25 25 24 26 28 28 27
14 16 17 18 19 19 19 19 19 19 18 18 18 19 20 20 20 19 19 19 19 16 14 12 11 12 12 13 12 6 3 9 20 22 19 21 23 20 17 12 9 9 9 11 11 10 9 11 11 11 8 7 8 10 12 17 18 9 6 10 17 18 7 6 9 17 26 28 21 22 24 24 22 15 22 26 20 21 20 23 27 27 29 29 31 33 33 32
15 17 17 17 18 19 19 19 19 19 18 18 18 20 20 21 22 20 18 17 18 16 14 13 10 12 13 14 17 9 4 17 24 20 19 20 22 21 16 12 9 9 10 10 10 9 11 12 12 11 7 6 10 12 13 14 14 11 8 8 13 12 3 8 16 28 32 29 31 32 24 21 23 22 24 21 19 24 25 27 30 32 34 34 34 34 33 33
15 16 17 17 17 18 18 19 19 18 17 17 17 19 19 19 21 23 21 16 15 15 14 13 10 11 13 15 17 9 7 22 22 17 19 19 22 20 15 12 10 10 9 9 10 9 9 10 10 9 7 7 11 12 14 12 8 12 12 8 11 8 6 10 16 25 26 26 36 30 19 19 18 21 22 18 19 24 28 31 33 36 37 36 37 35 34 34
15 15 16 16 17 17 18 18 18 18 18 18 18 19 19 18 17 20 23 18 14 12 12 12 10 10 11 14 14 6 12 22 18 17 19 19 22 18 14 12 10 10 9 9 11 9 8 10 10 9 8 8 11 11 14 11 5 14 14 8 13 8 7 13 17 25 24 28 42 30 16 21 22 19 12 15 21 26 31 33 32 37 35 34 37 36 36 35
14 15 15 15 15 16 17 18 19 19 20 20 21 21 21 20 17 14 20 23 16 10 9 10 10 10 10 11 11 8 18 23 17 19 18 18 20 16 14 12 10 10 10 11 10 9 8 7 9 9 7 5 8 8 8 8 3 15 19 7 12 8 9 12 18 25 20 21 42 38 21 23 26 19 11 16 23 26 33 32 31 34 32 32 34 36 38 36
14 14 14 14 14 14 15 17 18 19 20 22 24 26 25 24 21 13 14 24 24 13 7 7 9 11 11 11 10 11 22 23 18 19 18 18 17 14 13 11 9 9 11 11 10 9 7 5 6 9 10 6 6 6 3 6 6 14 18 8 10 10 9 5 11 22 18 14 31 35 20 18 18 14 17 21 24 29 36 33 30 31 30 31 32 35 37 37
13 13 13 12 12 12 13 14 16 18 19 22 25 29 29 28 25 18 12 17 27 22 10 7 8 9 10 10 11 17 24 23 19 18 18 18 17 14 11 8 8 9 12 10 7 8 6 3 6 11 14 9 4 4 6 8 8 9 13 8 8 8 4 5 5 14 15 10 17 21 9 8 11 15 22 20 22 32 36 32 30 29 29 30 31 35 36 37
12 13 12 10 9 10 10 11 13 14 15 18 21 24 28 31 29 24 17 14 22 27 21 14 9 7 8 9 14 21 24 22 20 20 20 20 18 13 9 7 7 10 11 5 3 4 4 5 7 12 13 10 7 5 9 8 7 7 10 7 5 6 2 7 11 4 6 9 25 25 8 6 10 17 24 22 26 35 33 30 30 28 28 29 30 33 36 38
12 12 11 10 8 7 7 7 8 8 9 12 15 17 20 27 32 31 26 18 17 25 30 24 12 6 7 10 17 24 25 24 23 22 21 19 15 12 9 6 7 9 5 2 1 4 5 7 6 10 9 9 9 5 7 5 4 5 7 7 5 5 5 9 17 6 7 14 31 29 7 7 12 15 23 26 33 38 33 30 30 29 28 29 32 34 37 40
11 11 11 10 9 6 5 4 4 5 8 11 14 15 14 17 27 34 32 26 18 20 31 32 17 3 3 13 22 26 28 27 26 24 21 17 12 11 8 4 6 6 3 2 5 6 7 7 7 7 6 5 6 5 5 4 4 5 5 5 7 8 6 6 15 8 12 13 19 21 9 8 11 13 22 29 38 40 34 29 30 31 29 29 31 32 37 40
11 11 12 11 10 9 7 7 8 9 10 11 11 14 14 11 16 28 32 31 24 17 23 33 24 2 2 22 28 28 31 28 26 24 20 15 12 10 6 4 7 7 5 7 5 4 5 3 6 3 4 4 4 5 6 5 5 5 6 4 8 11 8 7 8 11 19 19 17 19 16 12 12 16 23 29 38 41 34 28 28 29 29 29 30 30 32 36
11 12 12 11 11 10 10 9 10 11 11 11 12 14 14 8 9 20 28 32 33 22 15 28 30 6 3 27 31 28 32 28 26 25 18 13 12 8 4 5 4 5 10 7 4 2 1 1 2 1 2 1 2 3 4 6 7 8 7 5 8 12 10 10 8 10 20 21 19 19 17 16 15 17 22 25 32 37 31 28 29 28 28 29 29 30 30 31
12 12 12 12 11 10 10 10 10 11 12 12 13 13 13 9 5 12 24 31 33 22 10 21 26 9 8 24 28 28 31 28 26 28 21 14 12 7 1 0 3 6 9 3 7 6 5 5 3 1 1 2 4 4 2 4 10 10 6 9 12 11 11 11 12 14 21 20 16 17 17 17 16 16 20 22 27 31 27 28 30 28 28 27 27 28 29 30
12 12 13 12 12 11 11 11 11 12 13 15 16 12 12 11 3 6 19 28 28 19 13 19 21 15 16 21 26 30 30 29 31 33 26 19 15 7 4 5 6 4 3 3 8 8 7 7 4 3 2 4 8 7 8 9 8 11 13 16 16 14 11 12 12 11 21 20 12 16 19 18 18 16 17 21 25 26 24 25 26 26 26 26 25 26 27 28
13 13 13 12 12 12 11 12 12 13 14 17 17 10 9 8 3 4 11 17 26 24 19 23 23 21 23 22 26 30 28 30 35 37 30 24 20 9 4 4 1 3 6 8 8 4 5 6 6 6 6 10 8 8 10 8 14 18 16 14 13 14 11 12 12 9 20 21 10 17 22 18 17 15 17 22 23 21 21 21 22 23 23 23 24 23 24 25
13 13 13 13 13 12 11 12 13 14 15 15 15 12 10 7 3 3 4 4 19 28 22 24 28 30 30 27 27 26 24 26 32 38 34 28 26 17 11 10 5 6 7 8 6 3 6 7 7 9 9 5 7 10 9 9 19 15 12 12 10 12 13 13 13 10 15 17 10 16 21 16 15 15 17 21 20 19 21 21 20 21 21 22 22 22 23 25
13 14 14 14 13 12 12 13 14 15 15 14 14 14 10 8 5 3 3 2 11 28 28 24 26 32 33 30 30 25 20 21 24 34 36 31 28 20 13 10 8 10 9 8 7 5 7 7 11 9 4 8 11 13 14 13 13 7 8 11 10 11 12 10 10 10 13 14 14 17 17 11 11 12 14 19 20 19 20 21 20 21 21 22 22 22 24 26
14 14 14 15 14 13 12 13 17 17 16 16 15 12 9 7 6 4 3 2 3 21 29 21 19 28 31 28 31 22 14 21 23 29 34 30 27 19 12 12 9 10 10 10 11 10 9 13 14 9 10 11 10 14 14 9 9 8 6 8 10 11 12 13 14 15 16 15 16 18 13 7 8 9 9 13 16 17 18 19 20 20 20 20 22 23 24 25
14 15 15 15 15 14 13 14 18 16 15 18 16 12 9 6 6 5 3 2 1 15 26 23 16 25 31 29 32 20 7 18 25 28 31 27 24 14 7 13 9 7 9 10 11 9 12 20 18 13 13 13 11 12 14 7 6 7 7 5 9 16 17 19 19 15 11 7 8 11 9 4 6 8 7 7 10 12 15 17 18 18 19 19 21 22 23 23
14 15 14 16 16 15 14 13 15 14 11 16 17 14 9 6 7 7 3 1 3 11 19 22 15 20 29 29 33 21 3 13 23 29 32 24 23 15 5 9 7 6 6 5 6 4 8 20 19 13 13 14 13 12 13 9 4 5 5 5 9 20 19 19 16 9 6 4 5 9 9 6 5 7 8 7 8 9 11 14 16 17 18 19 21 21 21 22
13 14 14 16 16 16 14 11 13 14 11 11 14 15 11 6 7 8 3 2 5 9 12 17 14 18 27 25 28 18 3 14 20 26 33 22 22 22 12 8 7 8 5 1 5 4 8 17 16 13 12 11 11 10 11 9 5 3 5 3 13 21 17 14 10 6 6 7 10 11 11 8 5 5 6 6 8 8 8 10 12 16 17 18 19 19 20 21
13 14 14 15 16 15 13 11 12 14 13 11 10 14 12 7 6 6 3 2 5 8 8 12 13 20 28 24 26 20 11 17 14 17 31 24 20 21 14 11 10 11 11 6 6 4 8 12 13 12 11 8 7 6 9 8 5 2 8 2 14 16 12 9 5 4 8 9 8 6 8 7 4 4 4 5 6 6 7 7 9 13 15 16 17 17 18 19
12 13 14 15 15 15 13 12 13 13 13 13 9 11 12 8 6 3 3 2 3 7 9 11 12 21 29 22 23 24 19 20 14 14 27 27 22 16 7 11 12 11 14 13 8 5 5 7 10 11 8 6 7 7 7 7 4 3 9 3 9 7 8 9 6 5 7 7 4 2 5 5 3 3 3 3 3 4 5 5 7 12 14 14 16 16 16 17
13 14 15 16 15 16 15 14 15 13 12 13 9 9 11 8 4 2 4 2 1 6 12 11 11 18 24 15 15 21 17 19 21 20 25 27 30 26 12 13 16 6 9 13 10 9 9 8 10 11 10 8 7 7 7 6 4 4 6 4 7 4 6 7 5 5 6 5 4 3 6 6 3 2 2 2 2 3 3 4 6 10 12 13 14 15 15 16
14 15 16 18 17 17 15 13 14 13 11 11 8 7 7 6 4 3 3 3 2 7 10 8 10 16 17 10 8 15 13 16 23 21 19 20 24 29 19 13 15 6 5 8 7 10 13 11 8 9 19 18 7 5 8 8 6 3 1 4 5 3 5 5 3 4 5 2 1 5 8 7 4 3 2 3 3 3 4 4 4 8 11 12 13 13 14 16
14 16 17 17 17 16 15 13 13 12 9 10 10 8 3 3 5 3 2 6 3 5 6 6 11 13 11 9 8 11 8 10 18 15 11 10 9 14 13 8 9 4 4 6 4 6 9 10 11 10 20 23 9 3 7 8 8 5 3 4 4 3 3 3 3 4 3 1 1 4 7 6 4 2 3 4 4 4 6 6 6 7 10 11 12 12 13 15
14 16 16 17 16 15 14 12 12 10 8 9 12 10 4 3 4 2 3 5 2 3 5 6 11 12 8 8 8 9 7 7 13 12 9 8 7 8 10 12 12 5 3 5 4 5 4 8 15 10 12 19 12 5 4 5 7 6 4 3 2 3 2 3 3 2 2 2 3 5 5 4 2 1 4 4 4 5 6 7 7 8 9 10 10 11 12 13
13 16 16 16 17 16 14 11 10 10 9 10 8 7 7 6 3 1 1 3 2 4 6 6 10 10 6 7 6 6 5 5 9 10 8 9 8 7 9 13 16 8 3 4 4 5 4 5 11 8 7 13 10 5 1 3 5 4 2 3 3 2 1 3 3 2 3 2 3 5 4 3 2 1 4 6 6 6 6 6 7 7 7 7 8 9 10 11
12 14 15 17 16 14 13 12 9 9 12 12 9 6 6 5 1 1 2 4 2 3 7 8 8 6 4 6 6 7 7 5 8 7 7 9 8 8 8 9 15 12 5 4 3 3 5 3 6 6 7 9 8 6 5 3 3 4 3 4 4 2 1 2 3 4 5 3 2 3 2 2 2 1 3 6 7 7 7 7 7 6 5 5 5 6 8 9
10 13 15 16 13 11 12 13 9 7 9 11 9 6 4 2 2 2 4 6 3 5 9 7 4 4 5 5 5 11 11 7 8 6 4 6 7 9 8 6 12 13 7 5 3 2 4 2 5 7 7 10 11 7 8 9 1 2 5 3 2 2 1 3 4 4 5 4 3 1 1 2 2 1 3 5 5 6 7 8 7 5 4 4 5 4 5 6
9 13 16 15 13 10 9 11 11 12 15 13 8 4 2 1 3 4 7 8 5 6 6 4 4 5 6 5 5 11 12 7 6 6 4 4 5 8 8 6 11 14 10 7 2 1 3 1 4 8 5 11 18 8 6 17 10 1 3 3 3 1 2 2 2 1 3 4 2 2 3 3 2 2 4 5 5 5 6 8 8 5 4 4 4 4 4 5
8 12 15 15 13 12 9 7 7 10 16 14 8 5 1 1 4 5 7 8 5 4 3 3 3 4 5 4 5 9 10 7 6 5 5 3 3 8 8 6 10 16 18 14 4 0 2 1 3 8 4 7 16 9 3 16 17 5 1 4 1 3 2 3 2 1 2 3 1 2 3 4 4 4 5 7 7 6 6 6 7 5 4 3 3 2 2 4
7 7 11 13 10 13 13 7 3 7 11 8 5 4 2 2 3 5 6 6 4 3 3 2 1 3 5 4 4 7 7 6 6 5 4 3 2 7 12 9 9 18 24 16 4 2 3 0 1 7 7 4 7 7 3 8 13 7 3 4 3 2 1 1 1 1 2 2 2 2 2 2 2 5 8 8 7 6 5 5 6 5 4 3 2 1 1 3
6 3 7 11 7 9 10 6 9 13 10 4 3 2 1 1 3 5 7 6 3 3 3 2 3 3 3 2 3 5 5 5 7 4 3 4 2 4 12 12 9 16 23 13 6 3 4 2 1 5 8 6 3 4 3 3 6 7 6 5 4 3 1 2 1 1 2 2 2 3 1 2 1 2 6 8 6 6 5 4 5 5 3 2 1 0 1 3
6 3 6 10 7 5 4 6 11 12 5 3 4 2 1 1 3 4 7 7 5 5 4 3 4 4 3 3 3 4 4 4 6 4 3 5 4 2 10 15 13 14 15 7 5 5 3 2 3 3 5 5 2 1 2 3 4 3 4 4 4 4 2 2 2 1 1 2 2 2 1 2 1 1 4 6 6 7 6 4 4 4 4 3 1 1 3 4
4 2 5 8 7 6 7 8 10 7 3 3 3 2 2 1 1 2 5 6 3 3 5 4 3 3 3 2 2 3 4 3 4 4 3 4 4 2 9 17 18 15 10 3 3 4 2 1 2 2 2 2 2 1 3 3 3 2 3 4 4 3 3 2 1 2 2 1 1 1 0 2 2 1 5 6 7 7 7 6 5 4 4 4 3 2 4 6
6 4 5 5 6 8 10 8 6 5 4 2 3 3 2 1 1 2 3 5 3 1 3 3 2 3 4 3 3 3 4 3 3 3 3 3 4 4 10 16 18 16 10 3 4 7 4 2 2 1 1 2 2 3 4 2 2 2 3 5 4 3 3 1 1 1 1 0 1 1 0 3 3 2 5 6 7 7 7 8 8 7 6 6 5 5 5 6
8 9 10 7 2 4 7 4 2 3 2 2 3 3 2 2 3 3 2 3 3 2 2 2 2 4 4 4 3 3 4 2 3 4 3 2 3 5 10 14 15 13 9 3 5 9 5 2 2 1 1 2 2 4 5 3 3 3 2 4 4 4 5 3 1 1 2 0 1 2 1 3 2 3 4 5 7 8 10 11 10 9 8 7 7 6 6 8
4 6 11 11 6 6 7 6 7 6 3 3 3 2 2 3 4 4 4 3 4 4 2 1 1 2 1 1 2 3 4 3 2 3 3 3 2 5 9 11 12 13 12 7 8 9 3 2 3 2 3 2 1 2 3 3 3 2 2 4 4 5 5 3 1 2 1 1 0 2 3 2 3 4 4 6 7 8 11 12 10 9 9 9 8 8 9 11
1 1 4 9 12 14 13 11 12 9 4 4 3 1 1 2 2 3 4 3 3 4 3 1 2 2 2 0 0 1 3 3 1 1 3 3 2 3 6 7 9 14 14 12 13 8 2 2 4 3 2 1 1 2 1 2 3 3 3 4 3 3 3 2 1 1 1 2 2 3 2 3 4 6 7 8 7 7 10 11 11 10 10 10 10 11 11 12
1 1 1 3 8 12 13 10 10 8 4 3 2 1 2 3 3 2 2 2 2 2 2 2 2 1 1 2 1 1 2 2 1 2 3 4 3 3 4 5 8 14 14 13 14 6 2 2 3 1 2 4 3 5 4 3 3 4 4 4 3 2 1 1 2 3 0 2 3 3 4 4 4 4 5 7 7 8 11 12 11 10 10 10 11 12 12 13
1 2 4 3 2 4 5 5 7 7 5 3 2 1 3 3 3 1 2 2 2 3 2 1 3 4 4 3 2 2 3 1 1 2 3 4 4 4 2 4 8 13 14 13 12 6 2 1 2 1 4 6 7 6 5 4 4 4 5 5 5 4 4 4 5 4 2 2 5 4 6 5 8 7 5 7 6 6 8 10 9 10 10 11 12 13 13 15
4 5 5 4 4 5 6 6 8 9 6 4 2 0 1 3 2 2 2 1 1 3 3 1 2 3 4 3 2 2 3 2 0 1 2 3 4 4 3 1 5 13 13 9 8 5 2 0 0 1 4 7 6 5 5 5 4 5 7 7 7 7 7 7 7 6 6 7 9 8 8 11 11 9 9 14 16 13 9 9 10 11 13 13 14 14 15 15
4 3 4 7 8 9 9 7 6 5 3 1 1 1 0 2 2 3 2 1 1 1 3 1 2 2 2 3 2 2 2 2 1 2 3 3 2 2 2 0 2 10 10 5 4 5 3 1 1 0 3 5 3 2 3 4 5 8 9 8 8 8 7 8 8 6 6 9 9 6 8 11 11 10 12 17 19 15 10 10 12 13 14 14 14 15 16 17
1 2 6 9 7 4 5 4 1 0 1 1 1 1 1 1 2 4 3 2 3 2 1 2 4 1 1 1 1 1 2 3 2 3 3 2 2 2 2 2 3 5 6 3 2 4 4 1 1 2 3 4 2 2 4 6 7 10 12 11 11 9 7 6 6 6 7 7 4 2 5 8 8 7 9 11 11 10 10 11 12 15 15 15 16 17 17 18
4 8 8 7 4 1 2 1 2 1 1 2 2 3 2 2 4 3 2 2 3 4 3 4 3 1 0 0 0 0 2 3 4 5 5 4 5 4 4 4 3 1 2 2 2 2 2 2 1 2 2 4 4 4 4 6 6 5 6 5 7 8 7 6 5 7 9 7 5 4 6 6 3 2 3 4 6 8 11 13 14 16 16 15 16 17 19 21
Wind_Direction
4 9 18 23 21 22 21 16 15 16 16 14 14 13 7 10 14 12 8 0 352 348 347 348 353 360 6 5 358 353 354 23 37 12 11 342 328 315 300 321 319 316 318 320 341 332 322 300 273 242 227 223 221 224 219 222 211 209 218 204 207 208 212 218 216 211 199 154 113 57 54 67 62 40 53 61 64 84 70 62 73 67 66 74 86 83 75 78
16 25 31 31 29 32 34 31 30 30 29 27 28 26 23 24 21 15 4 352 345 342 344 344 350 359 3 6 359 349 1 35 30 11 359 325 323 316 292 302 307 310 309 318 338 326 317 303 285 240 222 224 219 209 209 210 206 212 208 207 214 202 207 226 239 219 217 106 94 66 61 60 44 29 26 60 56 53 42 30 43 57 61 63 72 74 74 78
29 37 39 38 38 42 43 41 38 35 33 29 27 24 21 18 10 2 350 343 341 339 344 341 344 354 357 6 358 345 8 24 8 11 340 320 327 319 299 297 293 299 300 311 327 314 300 293 292 280 243 239 225 204 204 198 199 213 213 220 215 205 204 218 235 234 240 177 106 81 72 63 48 42 38 65 58 45 38 24 25 41 53 57 66 73 72 74
35 39 41 47 48 47 45 41 36 32 27 23 19 15 10 3 357 350 343 340 340 339 344 340 343 351 351 359 357 343 346 337 9 5 324 323 334 323 311 301 291 288 284 292 314 307 287 278 277 262 248 250 232 211 207 196 192 202 210 230 209 211 214 214 218 216 225 196 117 87 79 69 56 55 46 49 56 43 34 33 37 45 55 62 66 69 70 70
38 39 45 54 54 49 43 37 32 27 23 20 15 12 6 2 357 352 349 345 345 343 343 347 351 354 353 353 356 342 326 311 14 348 324 332 339 331 320 307 295 281 275 295 312 305 276 262 260 246 239 246 235 220 211 201 197 196 213 232 240 224 211 223 219 209 207 139 93 71 76 83 68 58 47 48 46 32 36 44 54 56 59 66 68 67 66 65
43 48 53 54 52 48 42 36 31 26 23 21 17 15 12 9 7 5 3 358 357 353 350 359 2 2 0 353 353 343 327 348 354 340 335 337 336 336 327 312 302 286 286 303 311 304 267 249 245 237 228 233 241 225 209 205 201 206 215 216 243 249 250 252 232 202 176 111 87 80 82 87 78 59 52 52 28 17 48 61 59 59 67 73 73 68 62 60
52 59 60 54 50 47 41 35 30 27 25 25 24 22 20 17 14 9 7 7 7 5 6 9 10 11 6 8 8 353 1 358 342 339 339 331 331 336 329 321 320 302 295 298 307 309 277 252 237 232 228 225 243 233 211 205 200 213 223 194 222 242 304 306 191 140 121 108 97 89 81 77 79 68 56 53 30 29 56 69 64 65 72 75 74 68 63 62
57 62 61 55 51 46 41 36 31 29 29 29 28 25 23 22 19 13 7 7 9 12 16 14 21 19 10 19 3 337 11 353 339 337 333 325 329 333 332 336 331 306 299 297 296 304 297 273 238 227 240 226 232 232 211 206 203 208 224 195 195 205 48 70 120 103 97 105 98 85 71 67 77 71 56 49 45 49 62 68 63 64 65 65 65 63 64 63
60 61 60 57 52 47 43 39 35 33 30 27 23 17 15 15 18 20 14 6 8 14 19 17 25 23 15 14 353 328 352 344 334 331 328 325 327 328 334 333 319 304 303 300 278 277 301 287 252 238 262 263 251 238 207 207 200 193 218 209 160 153 113 106 110 100 96 99 94 81 55 51 63 71 54 37 56 65 68 66 59 59 58 56 56 56 61 61
61 59 59 59 53 50 46 42 40 36 32 28 21 15 9 3 6 19 22 13 4 8 19 20 18 19 18 10 360 348 344 338 332 331 328 326 325 326 331 318 311 307 297 296 266 257 302 306 306 299 290 287 271 252 211 210 174 177 213 209 150 138 113 116 101 95 93 92 92 83 56 46 48 69 45 18 61 75 73 66 59 59 56 54 53 51 54 57
60 59 60 60 56 53 48 47 46 43 42 37 32 28 20 13 4 11 27 23 11 358 10 19 13 13 10 7 11 354 341 340 335 334 330 326 325 328 327 315 311 301 292 297 254 243 293 298 327 323 284 261 246 249 215 217 215 187 203 187 133 98 69 114 113 102 94 91 94 86 63 42 45 53 19 30 64 74 73 66 60 60 56 56 53 51 50 50
58 59 60 61 59 55 52 53 54 53 51 46 43 37 31 26 17 9 22 28 25 10 348 357 358 356 353 7 15 346 341 344 338 335 334 330 331 331 325 316 308 290 295 299 245 242 282 272 327 316 278 263 224 232 181 198 242 207 193 160 117 93 50 72 116 112 109 111 101 88 60 31 38 31 24 55 67 66 70 64 59 58 55 55 53 53 51 48
55 57 60 61 60 57 58 59 61 62 57 51 47 41 37 33 27 21 13 24 27 24 15 351 344 343 345 4 7 345 343 348 343 337 338 338 338 333 326 321 305 290 301 302 251 250 272 285 329 303 284 286 253 169 145 194 232 207 171 141 128 119 54 20 83 119 123 134 111 95 72 36 35 21 32 61 70 65 67 62 60 56 54 55 52 54 52 49
49 52 56 58 58 59 60 63 66 66 58 47 37 34 35 34 33 30 21 20 24 28 30 15 2 356 352 2 357 347 352 357 352 349 348 344 340 336 340 341 303 297 302 277 227 271 304 2 336 300 288 276 262 145 143 198 220 190 159 149 147 127 95 33 30 88 135 105 100 95 90 78 49 26 40 60 70 69 65 59 60 56 53 52 51 53 52 51
45 46 49 51 51 51 55 60 61 55 39 17 9 11 19 29 34 33 28 26 23 29 30 23 12 354 359 4 351 352 2 4 358 360 354 343 342 346 349 341 306 310 317 187 286 338 3 6 327 287 269 243 247 194 152 184 193 185 167 165 162 121 109 45 13 354 147 97 97 97 90 88 69 39 46 62 71 72 65 57 56 54 53 51 50 51 53 56
40 40 40 40 36 31 22 13 3 356 345 342 353 359 358 13 27 29 27 25 27 28 28 25 15 341 31 7 353 354 2 4 3 3 357 351 358 5 7 356 346 6 18 336 337 359 21 345 304 279 257 235 231 188 147 153 176 194 179 170 152 116 98 64 3 3 119 97 87 97 104 94 77 55 52 61 69 69 64 57 55 55 52 51 51 50 52 55
35 36 35 31 26 19 3 346 337 332 331 340 351 356 354 350 12 22 21 24 33 31 28 25 18 63 63 2 357 354 357 4 9 5 1 7 9 4 32 69 41 37 342 330 339 351 21 309 261 255 257 248 223 178 149 167 178 173 181 179 136 111 91 95 35 41 91 91 83 91 95 89 79 70 57 58 67 67 61 55 55 56 54 53 52 50 49 49
31 32 31 27 22 13 4 353 343 339 337 341 342 346 357 354 3 16 15 22 32 34 31 17 17 59 316 350 353 352 358 6 10 9 9 15 19 10 62 106 63 346 309 327 8 305 303 224 205 170 267 271 277 207 161 174 171 171 183 161 117 104 93 99 90 79 87 87 88 88 87 86 79 72 64 59 67 69 64 59 57 56 57 57 55 51 49 48
30 30 28 24 20 12 5 356 347 345 339 340 344 352 12 18 25 22 20 26 30 35 33 4 12 35 320 338 348 354 6 12 11 16 17 13 17 11 14 216 283 289 284 314 44 34 62 68 69 56 13 18 319 290 269 216 176 168 144 104 103 98 90 96 98 98 92 82 79 86 86 84 75 68 69 66 68 69 66 63 60 58 58 57 56 55 53 52
30 29 26 21 17 13 7 360 355 351 348 352 355 7 21 16 28 20 23 34 35 33 28 10 12 16 352 344 353 1 12 18 16 18 19 15 6 338 285 288 273 295 324 57 51 37 62 72 61 46 15 306 291 290 282 247 166 120 99 97 103 101 98 103 99 95 95 86 72 84 83 76 73 67 68 69 69 70 67 66 63 60 59 56 56 57 57 55
29 27 23 20 16 13 10 7 3 357 357 356 359 23 37 22 40 349 4 36 35 27 21 17 16 16 10 1 359 2 5 12 16 17 20 25 19 1 351 358 303 40 43 72 79 49 54 68 40 9 305 292 295 297 280 213 127 99 100 106 106 106 106 102 96 91 94 92 83 86 83 73 73 69 65 67 67 67 68 71 70 65 62 58 56 56 56 54
26 22 19 17 13 12 10 6 1 357 359 358 7 34 43 34 54 7 349 16 25 24 18 16 17 16 17 14 8 5 4 9 10 12 16 23 24 19 27 43 58 47 47 72 83 49 41 48 9 331 293 328 19 347 341 103 109 103 110 109 108 110 106 96 96 102 94 95 96 86 84 77 75 74 67 66 68 72 73 74 74 71 67 61 57 54 52 50
23 17 15 14 9 9 5 1 0 2 8 9 18 29 26 24 19 29 44 285 11 20 16 15 15 12 12 10 5 3 12 17 4 2 9 14 15 12 22 48 62 49 46 49 48 49 42 4 330 327 354 52 45 16 22 71 80 81 116 116 124 122 117 113 103 95 85 101 111 90 81 74 70 76 72 69 73 75 74 75 75 72 70 65 59 55 50 47
19 14 13 10 9 8 4 7 8 8 14 16 24 25 15 20 18 36 43 254 19 14 10 14 12 9 7 0 360 357 5 20 9 1 6 9 8 9 25 36 47 51 44 39 40 48 30 348 339 16 46 42 44 28 26 60 65 50 72 104 128 125 114 115 114 104 93 107 116 94 79 62 57 65 68 69 72 72 70 70 70 67 67 66 59 55 51 48
17 13 11 10 12 10 9 16 11 8 15 16 19 16 12 16 10 24 20 220 47 359 3 11 6 9 8 0 3 357 342 16 12 5 7 10 7 2 24 28 32 41 29 29 37 42 15 357 5 38 35 22 43 36 16 33 87 71 40 40 127 123 111 116 123 120 111 134 140 102 85 78 77 75 72 69 67 69 67 64 64 62 60 59 56 53 49 48
16 12 11 13 13 10 13 17 8 9 14 12 13 9 6 6 3 18 15 176 35 350 355 2 356 8 8 3 5 3 348 5 7 12 15 22 22 12 22 32 39 42 17 18 37 48 6 5 15 32 27 23 37 30 8 12 83 94 16 341 118 120 121 130 134 127 128 146 119 103 106 114 111 97 95 94 79 72 68 64 62 59 56 55 54 52 48 45
15 12 14 14 11 12 16 13 9 17 10 356 6 8 359 351 6 16 5 135 29 344 342 352 355 9 5 4 11 15 30 345 355 18 18 26 37 35 47 39 43 47 13 11 50 20 359 12 16 16 22 32 34 20 356 359 69 87 319 320 124 129 135 140 140 129 117 90 70 87 110 115 107 96 95 96 91 81 70 67 63 59 59 57 54 52 48 43
11 10 15 14 11 13 13 9 10 16 7 345 346 359 358 348 349 3 28 89 3 337 339 345 353 4 0 9 23 28 34 2 355 16 17 30 41 34 40 23 35 53 30 48 83 24 11 23 15 9 21 32 19 355 342 358 71 42 320 46 130 139 130 104 81 90 98 91 89 100 104 98 102 105 86 77 83 82 75 71 68 63 60 58 55 51 47 41
8 7 11 10 11 12 11 14 14 8 360 349 339 346 354 344 322 339 48 62 333 333 343 347 353 356 354 7 24 23 30 23 13 11 19 35 39 30 36 9 23 65 49 53 79 48 34 35 22 19 22 12 343 330 349 15 57 346 330 60 122 126 103 84 57 70 81 82 93 128 117 102 104 108 73 64 63 69 83 77 73 70 62 59 55 50 46 40
7 5 8 8 9 10 10 12 9 359 349 354 354 345 354 358 340 28 37 14 1 342 337 346 353 346 348 1 16 12 24 27 18 19 23 30 34 32 30 4 5 50 76 59 66 60 49 41 39 33 13 354 325 334 2 14 18 344 340 73 112 102 97 98 82 73 67 58 26 31 111 113 107 111 58 73 68 47 80 80 74 73 65 59 54 49 44 39
10 8 9 8 6 5 8 10 3 355 352 3 8 348 1 23 22 80 49 338 328 347 338 345 345 340 350 8 9 1 18 29 19 23 24 22 30 29 24 10 359 10 90 59 61 59 45 35 34 31 19 10 335 338 10 3 1 1 19 88 96 75 87 94 83 69 64 97 28 36 75 82 92 145 128 110 101 57 68 74 68 73 70 63 54 48 42 36
13 12 10 6 3 2 4 5 360 1 13 20 14 357 354 52 35 52 357 320 314 350 344 333 333 333 345 7 17 0 5 30 22 23 26 20 32 30 31 27 357 0 61 39 57 55 47 41 23 18 24 18 359 338 8 360 1 17 52 77 87 87 111 109 76 70 57 78 98 54 67 63 60 110 134 125 105 74 74 72 64 66 72 68 56 49 40 34
15 15 11 5 5 8 8 6 5 13 24 18 17 16 26 79 46 16 317 337 345 327 324 315 322 324 338 8 17 1 360 29 25 24 24 27 42 35 34 29 12 9 18 11 42 33 37 41 18 8 15 14 15 29 13 347 351 7 24 35 108 131 144 128 83 73 87 58 16 32 63 84 68 91 138 127 97 90 84 76 70 64 67 67 58 49 38 32
18 16 13 11 12 15 16 14 18 26 23 18 25 30 43 68 57 328 298 347 304 289 314 322 320 320 357 32 21 9 16 22 18 27 31 28 34 21 15 19 15 11 349 2 30 23 41 37 6 3 1 359 14 45 43 279 321 328 337 25 69 93 96 125 134 132 124 112 11 7 36 120 159 157 125 121 117 118 103 85 77 68 67 67 59 48 36 30
21 18 19 18 16 22 26 24 30 39 39 46 56 47 47 69 26 352 3 328 310 313 316 317 319 323 13 27 22 25 27 8 0 22 48 41 38 20 2 7 13 12 0 2 355 8 68 60 338 3 29 8 4 3 353 336 304 307 350 37 44 355 359 77 89 106 113 107 53 16 8 89 110 86 115 132 139 135 121 106 91 78 77 76 69 54 36 26
17 20 25 22 19 31 35 30 32 46 58 67 70 54 51 64 356 1 356 337 333 323 312 309 327 355 4 0 10 9 1 359 358 2 52 55 49 28 6 358 16 17 13 13 355 357 52 43 327 1 32 19 3 342 5 25 328 275 19 34 285 305 107 87 50 74 92 80 70 67 60 73 82 125 177 169 148 139 135 122 109 98 92 89 86 70 39 26
16 24 27 24 24 33 41 47 54 63 68 73 73 61 72 47 9 352 347 343 319 301 314 345 8 359 358 355 3 356 346 346 3 4 19 35 29 17 6 357 12 15 7 358 356 76 36 282 338 5 5 8 7 354 26 27 19 88 43 309 269 23 91 103 77 73 63 71 102 180 155 151 179 164 173 179 163 161 158 135 125 121 105 98 96 83 47 22
9 23 24 19 25 35 39 46 50 61 65 69 81 86 79 358 5 348 345 346 320 305 345 31 17 7 11 357 347 350 348 352 359 2 18 23 10 14 12 352 355 360 351 343 339 74 12 295 343 5 357 1 9 9 18 10 10 52 131 292 353 85 23 14 87 129 73 86 139 210 172 172 194 179 173 185 179 170 165 145 138 132 112 104 91 74 42 8
354 13 19 12 26 44 38 28 45 77 71 63 83 87 32 342 14 1 355 348 311 310 11 46 20 10 16 14 353 344 352 7 360 352 16 11 349 26 22 358 339 346 342 343 10 296 312 54 332 356 7 2 12 23 23 348 353 12 22 346 31 102 106 56 130 173 120 128 136 144 181 215 216 176 170 176 172 160 163 157 148 142 128 118 87 47 11 358
19 23 11 5 28 52 41 49 68 68 67 52 65 86 286 312 50 32 14 5 344 346 18 19 3 5 3 27 41 357 347 11 7 3 25 5 349 48 25 6 342 337 337 347 41 351 313 37 5 346 9 18 28 20 12 346 344 360 16 11 3 354 21 77 35 72 110 134 138 117 164 267 297 154 155 156 152 152 162 167 160 157 148 133 106 357 299 326
26 28 1 11 33 46 47 64 53 49 63 80 69 84 212 342 35 33 17 11 20 32 35 15 6 24 13 2 34 5 343 5 12 16 36 18 28 49 6 357 343 332 334 348 32 17 352 10 2 356 13 29 75 7 345 359 332 332 18 10 347 348 0 43 26 7 68 86 147 137 157 225 242 48 115 132 142 154 163 178 190 182 176 178 189 268 279 294
45 34 359 28 50 56 77 72 41 35 74 87 72 82 120 123 3 33 17 2 2 25 34 28 2 26 35 0 353 355 351 3 8 14 31 30 46 21 345 351 350 347 351 348 349 6 359 308 2 43 49 72 95 333 329 348 322 318 30 15 351 6 29 62 63 309 352 52 167 144 122 251 247 110 113 131 150 163 173 194 213 216 208 207 223 262 276 285
69 52 13 40 68 71 85 84 41 42 67 89 106 100 107 104 13 87 46 6 0 8 32 41 351 16 37 10 339 351 355 359 11 26 38 30 37 15 353 358 3 3 7 1 334 348 356 3 21 47 115 106 87 329 313 328 18 24 30 21 17 18 12 18 204 286 4 46 9 61 34 269 258 132 125 142 160 176 197 211 216 225 228 223 233 253 273 287
69 52 36 36 81 89 82 93 99 88 97 122 114 105 117 75 37 63 64 21 26 11 10 58 22 11 19 1 351 355 349 1 29 28 25 15 24 21 7 9 16 16 16 17 330 334 349 32 3 348 15 8 357 340 328 333 30 45 33 22 29 21 3 348 214 18 14 11 83 97 242 266 226 158 158 177 193 205 218 220 216 223 232 231 235 254 279 293
62 53 43 42 69 108 96 116 137 127 133 140 113 96 117 88 50 54 67 65 54 30 19 92 9 351 344 330 346 2 10 32 41 6 1 5 24 28 12 10 20 16 7 357 337 334 356 42 4 53 76 38 330 312 309 312 332 356 2 5 30 34 15 2 13 12 333 310 77 182 232 247 187 189 208 214 214 219 227 228 221 225 234 234 244 267 286 296
38 60 42 43 63 81 88 110 127 124 140 152 118 83 103 106 98 77 68 76 66 48 60 72 330 281 212 196 22 35 30 34 16 333 3 3 355 16 11 11 18 9 359 355 352 351 80 77 34 70 114 185 241 262 274 337 323 278 306 337 7 40 30 44 42 236 226 316 289 230 260 284 224 207 214 219 218 223 231 228 221 228 238 241 254 276 289 297
47 47 33 45 61 73 80 93 106 110 136 158 122 137 129 117 137 119 55 61 61 43 66 67 28 26 38 18 20 44 34 40 349 330 6 8 340 332 8 25 20 7 1 2 3 6 126 53 22 22 253 241 261 292 303 324 297 253 272 299 281 280 315 104 175 212 134 8 264 269 359 330 261 240 224 221 215 214 223 226 228 236 242 246 259 276 288 295
34 86 90 92 63 66 76 87 95 94 97 100 93 139 133 130 150 129 77 91 60 6 5 71 57 58 51 21 347 355 9 43 59 5 12 5 336 323 10 62 42 20 9 6 13 33 115 17 348 294 280 264 260 274 277 278 271 261 266 266 261 260 236 214 219 221 191 201 232 293 350 301 269 281 283 267 263 243 228 230 235 240 244 252 262 272 281 288
91 107 98 92 88 82 82 103 112 97 80 83 87 39 146 148 135 83 75 119 76 2 351 18 50 59 59 33 14 26 20 23 59 17 28 6 330 336 6 64 35 18 13 11 10 21 91 110 251 243 298 287 269 247 239 245 257 262 256 248 250 252 236 232 236 221 213 235 252 280 301 285 270 264 265 271 275 273 257 238 238 245 252 258 263 268 273 280
107 110 110 102 91 82 84 101 120 109 76 55 73 34 207 165 129 104 85 64 79 356 330 28 93 75 59 34 24 41 32 16 290 313 11 7 339 18 45 108 353 360 7 25 357 349 29 114 202 94 324 299 284 225 233 248 259 264 263 247 239 249 249 246 246 227 221 247 256 263 277 279 272 263 262 264 265 263 248 232 238 248 255 257 261 266 270 275
114 121 123 112 91 68 88 100 99 146 126 352 87 141 211 219 136 119 101 46 58 68 26 98 120 114 32 7 358 13 19 19 0 344 3 349 317 355 13 351 2 353 353 16 343 342 17 44 226 33 345 297 305 310 278 280 280 275 273 258 233 228 236 239 233 212 207 221 222 211 254 261 267 281 275 263 259 253 239 236 248 255 258 260 262 265 268 273
141 133 117 100 92 76 100 104 325 343 56 32 78 128 136 133 139 128 104 75 81 89 92 105 124 176 246 160 3 49 341 326 309 302 294 272 278 288 287 305 335 348 323 340 336 349 12 344 335 30 331 288 296 291 287 314 321 297 279 258 211 203 222 244 248 227 212 198 179 199 231 242 260 329 304 264 257 252 247 250 255 259 261 262 262 265 269 275